Weather History for Marion, IN

Change the Weather History Date:

Saturday, April 19, 2014

  Actual Average (KMIE) Record (KMIE)
Temperature  
Mean Temperature 50 °F 53 °F  
Max Temperature 62 °F 63 °F 87 °F (1976)
Min Temperature 39 °F 42 °F 21 °F (1983)
Degree Days  
Heating Degree Days 14 13  
Month to date heating degree days 304  
Since 1 July heating degree days 5474  
Cooling Degree Days 0 1  
Month to date cooling degree days 2  
Year to date cooling degree days 3  
Moisture  
Dew Point 34 °F    
Average Humidity 57    
Maximum Humidity 85    
Minimum Humidity 32    
Precipitation  
Precipitation 0.00 in 0.12 in 1.58 in (1970)
Month to date precipitation 2.33  
Year to date precipitation 9.82  
Sea Level Pressure  
Sea Level Pressure 30.32 in    
Wind  
Wind Speed 9 mph (ENE)    
Max Wind Speed 15 mph    
Max Gust Speed 22 mph    
Visibility 9 miles    
Events      
T = Trace of Precipitation, MM = Missing Value Source: NWS Daily Summary

Daily Weather History Graph

Daily Weather History Graph

Search for Another Location

Airport:

Trip Planner

Search our weather history database for the weather conditions in past years. The results will help you decide how hot, cold, wet, or windy it might be!

Date:

Astronomy

Apr. 19, 2014 Rise Set
Actual Time 6:58 AM EDT 8:26 PM EDT
Civil Twilight 6:29 AM EDT 8:54 PM EDT
Nautical Twilight 5:55 AM EDT 9:29 PM EDT
Astronomical Twilight 5:19 AM EDT 10:05 PM EDT
Moon 12:10 AM EDT (4/19) 10:15 AM EDT (4/19)
Length of Visible Light 14h 24m
Length of Day
13h 27m
Waning Gibbous, 79% of the Moon is Illuminated
Apr 19
Waning Gibbous
Apr 22
Last Quarter
Apr 29
New
May 6
First Quarter
May 14
Full

Hourly Weather History & Observations

Time (EDT) Temp. Windchill Dew Point Humidity Pressure Visibility Wind Dir Wind Speed Gust Speed Precip Events Conditions
12:15 AM 46.2 °F 42.7 °F 35.1 °F 65% 30.31 in 10.0 mi North 6.9 mph - N/A   Clear
12:35 AM 45.0 °F 41.8 °F 35.1 °F 68% 30.31 in 10.0 mi North 5.8 mph - N/A   Clear
12:55 AM 43.5 °F 40.1 °F 34.7 °F 71% 30.31 in 10.0 mi North 5.8 mph - N/A   Clear
1:15 AM 43.5 °F 39.4 °F 34.3 °F 70% 30.31 in 7.0 mi North 6.9 mph - N/A   Clear
1:35 AM 43.0 °F 39.5 °F 34.2 °F 71% 30.32 in 10.0 mi North 5.8 mph - N/A   Clear
1:55 AM 41.4 °F 36.2 °F 33.6 °F 74% 30.31 in 10.0 mi NNE 8.1 mph - N/A   Clear
2:15 AM 42.8 °F 38.6 °F 32.2 °F 66% 30.31 in 7.0 mi NNE 6.9 mph - N/A   Clear
2:35 AM 42.1 °F 38.4 °F 32.0 °F 67% 30.31 in 10.0 mi NNE 5.8 mph - N/A   Clear
2:55 AM 40.3 °F 36.3 °F 32.2 °F 73% 30.30 in 10.0 mi NNE 5.8 mph - N/A   Clear
3:15 AM 40.3 °F 36.3 °F 32.0 °F 72% 30.30 in 10.0 mi NNE 5.8 mph - N/A   Clear
3:35 AM 39.7 °F 34.9 °F 32.0 °F 74% 30.31 in 10.0 mi NNE 6.9 mph - N/A   Clear
3:55 AM 39.7 °F 34.9 °F 32.0 °F 74% 30.31 in 10.0 mi NNE 6.9 mph - N/A   Clear
4:15 AM 40.8 °F 35.6 °F 32.0 °F 71% 30.30 in 10.0 mi NNE 8.1 mph - N/A   Clear
4:35 AM 40.8 °F 35.0 °F 32.0 °F 71% 30.30 in 10.0 mi NNE 9.2 mph - N/A   Clear
4:55 AM 40.6 °F 35.4 °F 31.8 °F 71% 30.30 in 10.0 mi NE 8.1 mph - N/A   Clear
5:15 AM 40.5 °F 35.1 °F 32.0 °F 72% 30.31 in 10.0 mi NE 8.1 mph - N/A   Clear
5:35 AM 39.9 °F 33.4 °F 32.0 °F 73% 30.31 in 10.0 mi NE 10.4 mph - N/A   Clear
5:55 AM 39.7 °F 33.7 °F 32.0 °F 74% 30.31 in 10.0 mi NE 9.2 mph - N/A   Clear
6:15 AM 39.7 °F 34.3 °F 32.4 °F 75% 30.31 in 10.0 mi ENE 8.1 mph - N/A   Clear
6:35 AM 39.9 °F 33.4 °F 32.5 °F 75% 30.32 in 10.0 mi ENE 10.4 mph - N/A   Clear
6:55 AM 39.9 °F 32.5 °F 33.6 °F 78% 30.33 in 5.0 mi ENE 12.7 mph - N/A   Haze
7:15 AM 40.1 °F 32.4 °F 35.1 °F 82% 30.34 in 5.0 mi East 13.8 mph - N/A   Clear
7:35 AM 40.1 °F 32.4 °F 35.8 °F 85% 30.35 in 4.0 mi East 13.8 mph - N/A   Scattered Clouds
7:55 AM 40.1 °F 32.0 °F 35.6 °F 84% 30.36 in 7.0 mi East 15.0 mph - N/A   Scattered Clouds
8:15 AM 39.7 °F 31.5 °F 34.9 °F 83% 30.36 in 7.0 mi East 15.0 mph 18.4 mph N/A   Scattered Clouds
8:35 AM 39.9 °F 32.5 °F 34.7 °F 82% 30.37 in 7.0 mi East 12.7 mph - N/A   Scattered Clouds
8:55 AM 41.0 °F 33.5 °F 35.1 °F 79% 30.37 in 7.0 mi East 13.8 mph - N/A   Scattered Clouds
9:15 AM 42.1 °F 34.9 °F 35.1 °F 76% 30.37 in 7.0 mi East 13.8 mph 20.7 mph N/A   Clear
9:35 AM 43.3 °F 37.7 °F 35.2 °F 73% 30.37 in 10.0 mi East 10.4 mph 20.7 mph N/A   Clear
9:55 AM 44.4 °F 37.9 °F 35.6 °F 71% 30.38 in 10.0 mi ENE 13.8 mph - N/A   Clear
10:15 AM 45.7 °F 39.8 °F 36.0 °F 69% 30.38 in 10.0 mi East 12.7 mph - N/A   Clear
10:35 AM 47.3 °F - 36.3 °F 66% 30.37 in 10.0 mi East 12.7 mph - N/A   Clear
10:55 AM 48.7 °F - 36.5 °F 63% 30.38 in 10.0 mi ESE 15.0 mph - N/A   Clear
11:10 AM 49.5 °F - 36.9 °F 62% 30.37 in 7.0 mi East 12.7 mph 18.4 mph N/A   Clear
11:35 AM 50.7 °F - 37.2 °F 60% 30.38 in 10.0 mi East 9.2 mph - N/A   Clear
11:55 AM 52.2 °F - 37.6 °F 58% 30.38 in 7.0 mi East 12.7 mph - N/A   Clear
12:15 PM 53.6 °F - 37.6 °F 55% 30.37 in 7.0 mi East 10.4 mph - N/A   Clear
12:35 PM 55.2 °F - 37.6 °F 52% 30.36 in 10.0 mi East 13.8 mph - N/A   Clear
12:55 PM 55.6 °F - 37.9 °F 52% 30.36 in 10.0 mi East 11.5 mph 17.3 mph N/A   Clear
1:15 PM 56.7 °F - 37.6 °F 49% 30.36 in 10.0 mi ESE 11.5 mph 19.6 mph N/A   Clear
1:35 PM 57.7 °F - 37.6 °F 47% 30.35 in 10.0 mi East 12.7 mph - N/A   Clear
1:55 PM 58.6 °F - 36.9 °F 44% 30.34 in 10.0 mi East 13.8 mph 17.3 mph N/A   Clear
2:15 PM 59.4 °F - 36.7 °F 43% 30.34 in 10.0 mi ENE 11.5 mph 19.6 mph N/A   Clear
2:35 PM 59.9 °F - 36.3 °F 41% 30.34 in 10.0 mi East 11.5 mph 20.7 mph N/A   Clear
2:55 PM 60.6 °F - 35.6 °F 39% 30.33 in 10.0 mi East 15.0 mph 21.9 mph N/A   Clear
3:15 PM 61.0 °F - 34.9 °F 38% 30.33 in 10.0 mi East 12.7 mph 19.6 mph N/A   Clear
3:35 PM 61.5 °F - 35.1 °F 37% 30.32 in 10.0 mi East 12.7 mph 17.3 mph N/A   Clear
3:55 PM 62.1 °F - 34.5 °F 36% 30.31 in 10.0 mi ESE 12.7 mph 19.6 mph N/A   Clear
4:15 PM 62.1 °F - 35.1 °F 37% 30.30 in 10.0 mi East 10.4 mph - N/A   Clear
4:35 PM 62.4 °F - 34.5 °F 35% 30.29 in 10.0 mi ENE 10.4 mph - N/A   Clear
4:55 PM 62.6 °F - 34.0 °F 34% 30.29 in 10.0 mi East 10.4 mph 18.4 mph N/A   Clear
5:15 PM 62.4 °F - 33.6 °F 34% 30.28 in 10.0 mi ESE 11.5 mph 16.1 mph N/A   Clear
5:35 PM 62.6 °F - 33.1 °F 33% 30.28 in 10.0 mi East 11.5 mph 17.3 mph N/A   Clear
5:55 PM 62.1 °F - 31.8 °F 32% 30.28 in 10.0 mi East 10.4 mph - N/A   Clear
6:15 PM 61.9 °F - 32.2 °F 33% 30.28 in 5.0 mi East 11.5 mph - N/A   Haze
6:35 PM 61.5 °F - 32.0 °F 33% 30.28 in 10.0 mi East 9.2 mph 17.3 mph N/A   Scattered Clouds
6:55 PM 61.2 °F - 30.9 °F 32% 30.28 in 10.0 mi East 10.4 mph - N/A   Clear
7:15 PM 60.4 °F - 30.2 °F 32% 30.28 in 10.0 mi East 11.5 mph - N/A   Clear
7:35 PM 59.5 °F - 29.8 °F 32% 30.28 in 10.0 mi East 9.2 mph - N/A   Clear
7:55 PM 58.5 °F - 30.2 °F 34% 30.28 in 4.0 mi East 8.1 mph - N/A   Haze
8:15 PM 56.7 °F - 31.8 °F 39% 30.28 in 10.0 mi East 6.9 mph - N/A   Clear
8:35 PM 55.0 °F - 32.0 °F 42% 30.28 in 10.0 mi East 6.9 mph - N/A   Clear
8:55 PM 54.0 °F - 31.8 °F 43% 30.29 in 10.0 mi East 5.8 mph - N/A   Clear
9:15 PM 53.1 °F - 31.8 °F 44% 30.29 in 10.0 mi ENE 4.6 mph - N/A   Clear
9:35 PM 51.3 °F - 32.2 °F 48% 30.29 in 10.0 mi ENE 5.8 mph - N/A   Clear
9:55 PM 49.6 °F - 32.2 °F 51% 30.30 in 10.0 mi ENE 6.9 mph - N/A   Clear
10:15 PM 49.1 °F - 32.0 °F 52% 30.30 in 10.0 mi ENE 6.9 mph - N/A   Clear
10:35 PM 48.7 °F - 31.5 °F 51% 30.30 in 10.0 mi East 9.2 mph - N/A   Clear
10:55 PM 49.1 °F - 30.0 °F 48% 30.29 in 10.0 mi East 8.1 mph - N/A   Clear
11:15 PM 48.2 °F - 29.5 °F 48% 30.29 in 10.0 mi East 10.4 mph - N/A   Clear
11:35 PM 47.3 °F - 28.9 °F 49% 30.30 in 10.0 mi East 9.2 mph - N/A   Clear
11:55 PM 46.6 °F - 27.5 °F 47% 30.29 in 10.0 mi East 9.2 mph - N/A   Clear